CZ-4 DEB, 26154

Orbit data source: Space-Track

CZ-4 DEB, 26154 is space debris in SSO originally from a launch on Thu, 14 Oct 1999 UTC launched from the Taiyaun Space Center, China (TSC). Debris objects in space refer to the collection of defunct objects orbiting the Earth. Examples of debris include non-operational satellites, rocket bodies, and fragments generated from explosions, collisions, or faulty payload assembly.

Loading next visibility...
Identifier
26154, 1999-057AQ
Orbit
SSO
Country
Flag of CNCN / PRC
Related business
Manufacturer
Unknown
Mission
Spacecraft
Bus & Motor
Unknown
Mass
Unknown
Launch date (UTC)
1999-10-14 (26 years ago)
Launch vehicle
Unknown
Launch site
Taiyaun Space Center, China (TSC)
Object type
Payload
Rocket body
Debris
Shape & HBR
Unknown shape, 0.1 m
Radar Cross Section
Medium (>0.1 m² and <1 m²)

Expand to show TLE details & history
Last TLE update: 12 hours ago

TLE from 12 hours ago
0 CZ-4 DEB
1 26154U 99057AQ  25349.73512822  .00000624  00000-0  56207-3 0  9996
2 26154  99.5399 278.0980 0515020 239.8584 115.0562 13.40075107254054
Epoch: 2025-12-15T17:38Z
TLE epoch observation values (Epoch: 2025-12-15T17:38:35.078Z)
Latitude
0.00005°
Longitude
-71.1776°
Altitude
1,290.874 km
Speed
7.124 km/s
True Right ascension
18h 32m 23s
True Declination
0° 00' 00"
Sunlit
Object was in daylight at epoch
Visualization orbit readout
Latitude
Unknown
Longitude
Unknown
Altitude
Unknown
Speed
Unknown
Apparent Right ascension
Unknown
Apparent Declination
Unknown
Sunlit
N/A
Visualization observer readout
Local Sidereal Time
04:14:44
Azimuth
Unknown
Elevation
Unknown
Doppler factor
Unknown
Orbital elements
Apogee altitude
1,491.758 km
Perigee altitude
720.832 km
Semi-major axis
7,484.432 km
Eccentricity
0.0515
Inclination
99.5399°
RAAN
278.098°
Arg. of periapsis
239.8584°
True anomaly
120.25335°
Mean anomaly
115.0562°
Eccentric anomaly
117.66959°
Mean motion
3.35201 °/min
Orbital period
107.4 mins
BSTAR
0.00056207
Loading maneuver chart data...
Computing Atmospheric mass density...
Loading historical data...
Loading historical data...
Loading historical data...
Loading historical data...
Loading historical data...
Loading historical data...
Loading historical data...

Documentation

Showing up to 5 results
|